SCO15TU EGAA-EGPH

Flight info

Callsign SCO15TU
Flight time 0h 27m
Altitude 19000
Route BLACA P600 TUNSO
Aircraft A319/M-SDE3FGHIRWY/LB1

Departure

Time 2026-04-23 07:38
Airport Belfast International Airport (EGAA)

Arrival

Time 2026-04-23 08:05
Airport Edinburgh Airport (EGPH)
Time Latitude Longitude Altitude Speed Heading
2026-04-23 07:26 54.65951 -6.21919 272 ft 0 kts 65°
2026-04-23 07:32 54.65949 -6.21924 272 ft 2 kts 65°
2026-04-23 07:32 54.65942 -6.21953 272 ft 3 kts 68°
2026-04-23 07:32 54.65935 -6.21986 272 ft 3 kts 73°
2026-04-23 07:33 54.65929 -6.22019 272 ft 3 kts 83°
2026-04-23 07:33 54.65929 -6.22053 272 ft 3 kts 110°
2026-04-23 07:33 54.65936 -6.22074 272 ft 1 kts 153°
2026-04-23 07:33 54.65942 -6.22079 274 ft 0 kts 154°
2026-04-23 07:35 54.65930 -6.22069 272 ft 6 kts 154°
2026-04-23 07:36 54.65866 -6.22016 276 ft 14 kts 154°
2026-04-23 07:36 54.65787 -6.22124 274 ft 20 kts 250°
2026-04-23 07:36 54.65762 -6.22376 272 ft 22 kts 264°
2026-04-23 07:36 54.65748 -6.22599 272 ft 14 kts 263°
2026-04-23 07:37 54.65728 -6.22772 272 ft 14 kts 228°
2026-04-23 07:37 54.65631 -6.22773 272 ft 15 kts 161°
2026-04-23 07:37 54.65525 -6.22710 274 ft 17 kts 161°
2026-04-23 07:37 54.65482 -6.22574 275 ft 15 kts 66°
2026-04-23 07:38 54.65561 -6.22278 273 ft 60 kts 66°
2026-04-23 07:38 54.65854 -6.21192 293 ft 134 kts 66°
2026-04-23 07:38 54.66258 -6.19705 942 ft 138 kts 69°
2026-04-23 07:38 54.66680 -6.18155 1649 ft 152 kts 70°
2026-04-23 07:39 54.67109 -6.16351 2172 ft 173 kts 73°
2026-04-23 07:39 54.67555 -6.14254 2672 ft 199 kts 73°
2026-04-23 07:39 54.68058 -6.11867 3302 ft 223 kts 73°
2026-04-23 07:39 54.68623 -6.09210 3955 ft 247 kts 73°
2026-04-23 07:40 54.69236 -6.06349 4876 ft 259 kts 73°
2026-04-23 07:40 54.69872 -6.03399 5937 ft 265 kts 73°
2026-04-23 07:40 54.70522 -6.00380 6986 ft 271 kts 73°
2026-04-23 07:40 54.71187 -5.97294 7993 ft 276 kts 73°
2026-04-23 07:41 54.71861 -5.94156 9026 ft 280 kts 72°
2026-04-23 07:41 54.72546 -5.90970 10077 ft 285 kts 73°
2026-04-23 07:41 54.73259 -5.87638 10644 ft 307 kts 72°
2026-04-23 07:41 54.74026 -5.84027 11044 ft 332 kts 72°
2026-04-23 07:42 54.74848 -5.80149 11455 ft 352 kts 73°
2026-04-23 07:42 54.75710 -5.76114 12164 ft 361 kts 71°
2026-04-23 07:42 54.76590 -5.72007 12956 ft 367 kts 72°
2026-04-23 07:42 54.77484 -5.67818 13739 ft 374 kts 71°
2026-04-23 07:43 54.78391 -5.63562 14492 ft 379 kts 71°
2026-04-23 07:43 54.79306 -5.59245 15176 ft 385 kts 72°
2026-04-23 07:43 54.80227 -5.54874 15926 ft 388 kts 72°
2026-04-23 07:43 54.81153 -5.50456 16642 ft 392 kts 72°
2026-04-23 07:44 54.82085 -5.45988 17379 ft 396 kts 72°
2026-04-23 07:44 54.83025 -5.41475 18091 ft 400 kts 72°
2026-04-23 07:44 54.83972 -5.36918 18819 ft 403 kts 72°
2026-04-23 07:44 54.84914 -5.32376 19290 ft 407 kts 72°
2026-04-23 07:45 54.85885 -5.27697 19450 ft 407 kts 71°
2026-04-23 07:45 54.87067 -5.23107 19495 ft 427 kts 63°
2026-04-23 07:45 54.88751 -5.18731 19501 ft 445 kts 53°
2026-04-23 07:45 54.90904 -5.14825 19498 ft 451 kts 42°
2026-04-23 07:46 54.93409 -5.11642 19497 ft 453 kts 32°
2026-04-23 07:46 54.96208 -5.09112 19503 ft 454 kts 26°
2026-04-23 07:46 54.99040 -5.06681 19504 ft 454 kts 26°
2026-04-23 07:46 55.01866 -5.04236 19503 ft 454 kts 27°
2026-04-23 07:47 55.04695 -5.01775 19503 ft 454 kts 27°
2026-04-23 07:47 55.07362 -4.98887 19503 ft 453 kts 40°
2026-04-23 07:47 55.09542 -4.94942 19510 ft 451 kts 52°
2026-04-23 07:47 55.11529 -4.90692 19513 ft 452 kts 51°
2026-04-23 07:48 55.13509 -4.86430 19523 ft 451 kts 51°
2026-04-23 07:48 55.15480 -4.82162 19530 ft 451 kts 51°
2026-04-23 07:48 55.17449 -4.77891 19527 ft 451 kts 51°
2026-04-23 07:48 55.19417 -4.73612 19507 ft 451 kts 51°
2026-04-23 07:49 55.21385 -4.69335 19502 ft 452 kts 51°
2026-04-23 07:49 55.23357 -4.65052 19509 ft 452 kts 51°
2026-04-23 07:49 55.25332 -4.60766 19516 ft 452 kts 51°
2026-04-23 07:49 55.27308 -4.56469 19517 ft 452 kts 51°
2026-04-23 07:50 55.29283 -4.52168 19522 ft 453 kts 51°
2026-04-23 07:50 55.31252 -4.47862 19472 ft 451 kts 51°
2026-04-23 07:50 55.33199 -4.43584 18801 ft 447 kts 51°
2026-04-23 07:50 55.35141 -4.39307 17675 ft 447 kts 52°
2026-04-23 07:51 55.37065 -4.35067 16821 ft 441 kts 52°
2026-04-23 07:51 55.38968 -4.30866 15970 ft 436 kts 52°
2026-04-23 07:51 55.40848 -4.26714 15142 ft 432 kts 52°
2026-04-23 07:51 55.42707 -4.22607 14365 ft 428 kts 52°
2026-04-23 07:52 55.44554 -4.18519 13569 ft 422 kts 52°
2026-04-23 07:52 55.46372 -4.14492 12778 ft 418 kts 53°
2026-04-23 07:52 55.48170 -4.10494 12016 ft 413 kts 52°
2026-04-23 07:52 55.49924 -4.06583 11620 ft 395 kts 53°
2026-04-23 07:53 55.51560 -4.02937 11388 ft 363 kts 53°
2026-04-23 07:53 55.53065 -3.99582 11249 ft 335 kts 53°
2026-04-23 07:53 55.54462 -3.96464 11045 ft 314 kts 53°
2026-04-23 07:53 55.55784 -3.93503 10767 ft 304 kts 53°
2026-04-23 07:54 55.57084 -3.90577 10531 ft 302 kts 54°
2026-04-23 07:54 55.58375 -3.87673 10383 ft 299 kts 53°
2026-04-23 07:54 55.59654 -3.84797 10250 ft 297 kts 53°
2026-04-23 07:54 55.60926 -3.81931 10114 ft 296 kts 54°
2026-04-23 07:55 55.61766 -3.80035 10025 ft 295 kts 54°
2026-04-23 07:55 55.63046 -3.77140 9896 ft 295 kts 54°
2026-04-23 07:55 55.64288 -3.74328 9731 ft 291 kts 54°
2026-04-23 07:55 55.65541 -3.71495 9294 ft 288 kts 54°
2026-04-23 07:56 55.66791 -3.68778 8778 ft 282 kts 47°
2026-04-23 07:56 55.68405 -3.66999 8287 ft 278 kts 18°
2026-04-23 07:56 55.70300 -3.66753 7793 ft 273 kts 349°
2026-04-23 07:56 55.72009 -3.68043 7299 ft 266 kts 322°
2026-04-23 07:57 55.73435 -3.70074 6808 ft 261 kts 319°
2026-04-23 07:57 55.74830 -3.72109 6289 ft 257 kts 319°
2026-04-23 07:57 55.76170 -3.74173 5783 ft 254 kts 315°
2026-04-23 07:57 55.77424 -3.76351 5272 ft 250 kts 313°
2026-04-23 07:58 55.78721 -3.78290 4993 ft 236 kts 336°
2026-04-23 07:58 55.80273 -3.78530 4986 ft 216 kts 20°
2026-04-23 07:58 55.81363 -3.77020 4991 ft 193 kts 60°
2026-04-23 07:58 55.82067 -3.75039 4866 ft 187 kts 62°
2026-04-23 07:59 55.82729 -3.73137 4685 ft 182 kts 61°
2026-04-23 07:59 55.83384 -3.71241 4427 ft 177 kts 63°
2026-04-23 07:59 55.84017 -3.69402 4198 ft 172 kts 62°
2026-04-23 07:59 55.84631 -3.67615 3972 ft 167 kts 61°
2026-04-23 08:00 55.85228 -3.65878 3742 ft 162 kts 60°
2026-04-23 08:00 55.85808 -3.64186 3536 ft 159 kts 60°
2026-04-23 08:00 55.86379 -3.62521 3317 ft 157 kts 61°
2026-04-23 08:00 55.86942 -3.60880 3110 ft 154 kts 61°
2026-04-23 08:01 55.87475 -3.59326 2909 ft 140 kts 60°
2026-04-23 08:01 55.87967 -3.57889 2714 ft 132 kts 60°
2026-04-23 08:01 55.88433 -3.56525 2547 ft 127 kts 61°
2026-04-23 08:01 55.88889 -3.55191 2379 ft 124 kts 62°
2026-04-23 08:02 55.89332 -3.53896 2200 ft 123 kts 61°
2026-04-23 08:02 55.89775 -3.52599 2019 ft 123 kts 61°
2026-04-23 08:02 55.90215 -3.51311 1853 ft 121 kts 60°
2026-04-23 08:02 55.90648 -3.50040 1685 ft 120 kts 60°
2026-04-23 08:03 55.91080 -3.48774 1527 ft 117 kts 62°
2026-04-23 08:03 55.91504 -3.47530 1353 ft 119 kts 61°
2026-04-23 08:03 55.91930 -3.46279 1174 ft 118 kts 60°
2026-04-23 08:03 55.92356 -3.45026 1003 ft 117 kts 62°
2026-04-23 08:04 55.92784 -3.43794 847 ft 118 kts 58°
2026-04-23 08:04 55.93205 -3.42558 660 ft 116 kts 60°
2026-04-23 08:04 55.93616 -3.41333 454 ft 117 kts 60°
2026-04-23 08:04 55.94033 -3.40102 309 ft 117 kts 59°
2026-04-23 08:05 55.94456 -3.38853 157 ft 118 kts 58°
2026-04-23 08:05 55.94861 -3.37663 113 ft 99 kts 59°
2026-04-23 08:05 55.95130 -3.36865 114 ft 47 kts 59°
2026-04-23 08:05 55.95238 -3.36543 112 ft 20 kts 59°
2026-04-23 08:06 55.95227 -3.36380 114 ft 15 kts 148°
2026-04-23 08:06 55.95161 -3.36313 114 ft 10 kts 150°
2026-04-23 08:06 55.95108 -3.36358 115 ft 11 kts 242°
2026-04-23 08:06 55.95067 -3.36482 115 ft 13 kts 239°
2026-04-23 08:07 55.95020 -3.36624 115 ft 13 kts 238°
2026-04-23 08:07 55.94983 -3.36733 115 ft 9 kts 239°
2026-04-23 08:07 55.94941 -3.36837 114 ft 11 kts 212°
2026-04-23 08:07 55.94872 -3.36781 116 ft 12 kts 160°
2026-04-23 08:08 55.94790 -3.36773 116 ft 10 kts 171°
2026-04-23 08:08 55.94717 -3.36736 115 ft 12 kts 180°
2026-04-23 08:08 55.94653 -3.36735 116 ft 4 kts 179°
2026-04-23 08:08 55.94618 -3.36730 116 ft 5 kts 159°
2026-04-23 08:09 55.94611 -3.36662 116 ft 7 kts 88°
2026-04-23 08:09 55.94612 -3.36624 116 ft 0 kts 89°